Weather History for Montague, CA

Change the Weather History Date:

Friday, March 22, 2013

  Actual Average Record
Temperature  
Mean Temperature 34 °F 43 °F  
Max Temperature 47 °F 57 °F 76 °F (1960)
Min Temperature 20 °F 30 °F 19 °F (1994)
Degree Days  
Heating Degree Days 31 22  
Month to date heating degree days 472 489  
Since 1 July heating degree days 4212 4366  
Cooling Degree Days 0 0  
Month to date cooling degree days 0 0  
Year to date cooling degree days 0 0  
Moisture  
Dew Point 18 °F    
Average Humidity 54    
Maximum Humidity 88    
Minimum Humidity 28    
Precipitation  
Precipitation 0.00 in 0.07 in 1.41 in (1999)
Month to date precipitation 0.20 1.65  
Year to date precipitation 1.24 5.86  
Sea Level Pressure  
Sea Level Pressure 30.32 in    
Wind  
Wind Speed 11 mph (North)    
Max Wind Speed 24 mph    
Max Gust Speed 29 mph    
Visibility 10 miles    
Events      
T = Trace of Precipitation, MM = Missing Value Source: NWS Daily Summary

Daily Weather History Graph

Daily Weather History Graph

Search for Another Location

Airport:

Trip Planner

Search our weather history database for the weather conditions in past years. The results will help you decide how hot, cold, wet, or windy it might be!

Date:

Astronomy

Mar. 22, 2013 Rise Set
Actual Time 7:09 AM PDT 7:24 PM PDT
Civil Twilight 6:41 AM PDT 7:52 PM PDT
Nautical Twilight 6:08 AM PDT 8:25 PM PDT
Astronomical Twilight 5:35 AM PDT 8:58 PM PDT
Moon 2:53 PM PDT (3/22) 4:16 AM PDT (3/22)
Length of Visible Light 13h 11m
Length of Day
12h 15m
Waxing Gibbous, 78% of the Moon is Illuminated
Mar 22
Waxing Gibbous
Mar 27
Full
Apr 2
Last Quarter
Apr 10
New
Apr 18
First Quarter

Hourly Weather History & Observations

Time (PDT) Temp. Windchill Dew Point Humidity Pressure Visibility Wind Dir Wind Speed Gust Speed Precip Events Conditions
12:53 AM 30.9 °F 22.2 °F 21.9 °F 69% 30.32 in 10.0 mi North 10.4 mph - N/A   Clear
1:53 AM 27.0 °F 17.3 °F 19.9 °F 75% 30.32 in 10.0 mi NNE 10.4 mph - N/A   Clear
2:53 AM 30.0 °F 20.0 °F 21.0 °F 69% 30.32 in 10.0 mi NNE 12.7 mph - N/A   Clear
3:53 AM 28.9 °F 18.6 °F 21.0 °F 72% 30.32 in 10.0 mi North 12.7 mph - N/A   Clear
4:53 AM 26.1 °F 20.5 °F 19.0 °F 75% 30.32 in 10.0 mi North 4.6 mph - N/A   Clear
5:53 AM 25.0 °F 20.7 °F 18.0 °F 75% 30.33 in 10.0 mi NNW 3.5 mph - N/A   Scattered Clouds
6:53 AM 21.9 °F 15.7 °F 16.0 °F 78% 30.34 in 10.0 mi SW 4.6 mph - N/A   Scattered Clouds
7:53 AM 23.0 °F 18.4 °F 19.0 °F 85% 30.36 in 10.0 mi WSW 3.5 mph - N/A   Mostly Cloudy
8:53 AM 30.9 °F - 24.1 °F 76% 30.35 in 10.0 mi Calm Calm - N/A   Mostly Cloudy
9:53 AM 36.0 °F 32.1 °F 23.0 °F 59% 30.34 in 10.0 mi West 4.6 mph - N/A   Overcast
10:53 AM 37.9 °F 30.9 °F 19.9 °F 48% 30.34 in 10.0 mi NE 10.4 mph - N/A   Mostly Cloudy
11:53 AM 41.0 °F 33.1 °F 16.0 °F 36% 30.33 in 10.0 mi North 15.0 mph 25.3 mph N/A   Partly Cloudy
12:53 PM 43.0 °F 35.7 °F 16.0 °F 34% 30.32 in 10.0 mi North 15.0 mph 25.3 mph N/A   Clear
1:53 PM 44.1 °F 37.1 °F 17.1 °F 34% 30.31 in 10.0 mi North 15.0 mph 23.0 mph N/A   Clear
2:53 PM 46.0 °F 39.3 °F 16.0 °F 30% 30.29 in 10.0 mi North 16.1 mph 25.3 mph N/A   Clear
3:53 PM 46.0 °F 38.8 °F 16.0 °F 30% 30.28 in 10.0 mi NNE 18.4 mph 25.3 mph N/A   Clear
4:53 PM 46.0 °F 38.5 °F 16.0 °F 30% 30.30 in 10.0 mi North 19.6 mph - N/A   Clear
5:53 PM 44.1 °F 35.4 °F 16.0 °F 32% 30.29 in 10.0 mi North 21.9 mph - N/A   Clear
6:53 PM 41.0 °F 31.6 °F 17.1 °F 38% 30.30 in 10.0 mi North 20.7 mph - N/A   Clear
7:53 PM 36.0 °F 29.0 °F 16.0 °F 44% 30.34 in 10.0 mi North 9.2 mph - N/A   Clear
8:53 PM 36.0 °F 27.5 °F 17.1 °F 46% 30.34 in 10.0 mi North 12.7 mph - N/A   Clear
9:53 PM 30.0 °F 23.2 °F 16.0 °F 56% 30.35 in 10.0 mi NE 6.9 mph - N/A   Clear
10:53 PM 32.0 °F 24.2 °F 17.1 °F 54% 30.34 in 10.0 mi North 9.2 mph - N/A   Clear